Details for Norwegian Air International at EFHK




Go Back


Latest METAR
Local Time

EFHK 240750Z 01010KT 350V050 CAVOK 17/01 Q1028 NOSIG

24/05/2018, 10:56:37

Description
Results
Norwegian Air International Logo
Number of Pilots based at EFHK
0 Pilots Based here
Number of Norwegian Air International Flights Departed from EFHK
3 Flights Departed
Number of Norwegian Air International Flights Arrived at EFHK
3 Flights Arrived
Number of Norwegian Air International Schedules Departing from EFHK
70 Schedules
Number of Norwegian Air International Schedules Arriving at EFHK
72 Schedules
Number of Norwegian Air International Schedules Departing from EFHK availible today
27 Schedules Today
Number of Norwegian Air International Schedules Arriving at EFHK availible today
27 Schedules Today
Average Landing Rate at EFHK
-184 fpm
Norwegian Air International Average Landing Rate at EFHK
-197 fpm
Total Fuel Purchased at EFHK by Norwegian Air International
14,196.99 kgs / 31,298.68 lbs

Pilots Based at EFHK


Pilot ID
Pilot Name
Pilot Rank
No. of Flights
No. of Flying Hours
There are no pilots assigned to this hub!   Will you be the first?
Content